Skip Page Navigation
NASA JPL Caltech
NASA Logo - Jet Propulsion Laboratory + View the NASA Portal
+ Center for Near-Earth Object Studies
JPL Home Earth Solar System Stars & Galaxies Technology
JPL Solar System Dynamics
BODIES ORBITS EPHEMERIDES TOOLS PHYSICAL DATA DISCOVERY FAQ SITE MAP
JPL Small-Body Database Browser
Search: [ help ]  
295845 (2008 VO39)
Classification: Main-belt Asteroid          SPK-ID: 2295845
Ephemeris | Orbit Diagram | Orbital Elements | Mission Design | Physical Parameters | Discovery Circumstances ]

[ show orbit diagram ]
Orbital Elements at Epoch 2459396.5 (2021-Jul-01.0) TDB
Reference: JPL 23 (heliocentric ecliptic J2000)
 Element Value Uncertainty (1-sigma)   Units 
e .1679376818456788 5.9647e-08  
a 2.4195975165618 2.2674e-08 au
q 2.01325591863085 1.3507e-07 au
i 4.975772943776507 5.6324e-06 deg
node 319.4402167879617 5.8754e-05 deg
peri 333.5421931561642 6.2439e-05 deg
M 242.6321298477138 2.7278e-05 deg
tp 2459844.687608351177
(2022-Sep-22.18760835)
0.00010882 TDB
period 1374.716426199721
3.76
1.9324e-05
5.291e-08
d
yr
n .2618721891577213 3.681e-09 deg/d
Q 2.825939114492751 2.6482e-08 au
  Orbit Determination Parameters
   # obs. used (total)      263  
   data-arc span      6944 days (19.01 yr)  
   first obs. used      2002-01-14  
   last obs. used      2021-01-18  
   planetary ephem.      DE441  
   SB-pert. ephem.      SB441-N16  
   condition code      0  
   norm. resid. RMS      .62098  
   source      ORB  
   producer      Otto Matic  
   solution date      2021-Jul-09 05:37:57  

Additional Information
 Earth MOID = .998253 au 
 Jupiter MOID = 2.36859 au 
 T_jup = 3.490 
[ show covariance matrix ]

Ephemeris | Orbit Diagram | Orbital Elements | Mission Design | Physical Parameters | Discovery Circumstances ]

Physical Parameter Table
Parameter Symbol Value Units Sigma Reference Notes
absolute magnitude H 17.23   n/a MPCxxxxx  

295845 (2008 VO39)          Discovered 2006-Jan-07 by Mt. Lemmon Survey at Mount Lemmon
Reference: 20110912/Numbers.arcLast Updated: 2011-09-14

Alternate Designations
 2008 VO39 = 2010 CK165 
Ephemeris | Orbit Diagram | Orbital Elements | Mission Design | Physical Parameters | Discovery Circumstances ]
ABOUT SSD CREDITS/AWARDS PRIVACY/COPYRIGHT GLOSSARY LINKS
FirstGov 2021-Aug-01 14:10 UT
(server date/time)  
NASA Home Page
Site Manager:   Ryan S. Park
Webmaster  Alan B. Chamberlin